www.pogodaiklimat.ru

Погода и климат >> Архив погоды >> Украина >> Житомир


ПОГОДА в Житомире

АРХИВ ПОГОДЫ в Житомире

Время (UTC), дата Ветер
(напр.,м/с)
 
Видим.   Явления Облачность Т
(С)
Тd
(С)
f
(%)
Тe
(С)
Тes
(С)
Комфортность P
(гПа)
Po
(гПа)
Тmin
(С)
Tmax
(С)
R
(мм)
R24
(мм)
S
(см)
00 20.09 ЮВ 2 4000 м слабый ливневой дождь {гроза} 10/8 600 м
[Cb calv Ac und]
+11.6 +10.8 95 +10 +10 по сезону 1017.2 991.0
03 20.09 В 2 10 км {гроза, ливн. осадки} 8/0
[Ac trans]
+12.6 +9.9 84 +12 +12 по сезону 1015.7 989.6
06 20.09 В 3 10 км {гроза, ливн. осадки} 9/3 600 м
[Cb cap Ac trans Cc]
+13.4 +8.9 74 +12 +13 по сезону 1014.8 988.8 +11.3 7
09 20.09 В 1 10 км 9/0
[Ac trans Ci]
+16.0 +9.5 65 +17 +21 тепло 1014.1 988.3
12 20.09 В 2 10 км 6/3 600 м
[Cu med, cong Ci fib]
+18.6 +12.6 68 +20 +24 тепло 1012.5 987.0
15 20.09 штиль 0 10 км 10/3 600 м
[Cb cap Ac und]
+18.6 +12.8 69 +19 +19 тепло 1012.2 986.7
18 20.09 В 3 10 км {гроза, ливн. осадки} 8/0
[Ac trans]
+15.4 +12.5 83 +15 +15 тепло 1011.4 985.7 +18.7 0.0
21 20.09 СВ 1 10 км {ливн. осадки} 6/0
[Ac trans Ci fib]
+14.4 +10.6 78 +15 +15 тепло 1011.1 985.3
00 21.09 В 2 10 км {ливн. осадки} 8/0
[Ac trans]
+13.5 +11.3 87 +13 +13 тепло 1010.0 984.1
03 21.09 В 2 10 км {гроза, ливн. осадки} 8/0
[Ci fib]
+12.4 +10.3 87 +11 +11 по сезону 1008.9 983.0
06 21.09 ЮВ 2 10 км {гроза, ливн. осадки} 3/0
[Ac cast]
+14.4 +10.4 77 +14 +16 тепло 1008.4 982.7 +11.5 0.0
09 21.09 ЮВ 2 10 км 9/8 630 м
[Cb cap Ac trans]
+20.2 +15.9 76 +24 +25 комфорт 1008.0 982.8
12 21.09 штиль 0 10 км 9/9 700 м
[Cb cap]
+21.8 +18.0 79 +26 +27 душно 1007.8 982.8
15 21.09 СВ 2 10 км 8/3 600 м
[Cb calv Ac cast Ci fib]
+21.0 +18.3 85 +26 +26 душно 1005.9 980.9
18 21.09 СЗ 1 4000 м гроза, ливневой дождь 10/8 600 м
[Cb calv Ac As]
+18.5 +16.3 87 +20 +20 тепло 1007.7 982.4 +22.5 0.3
21 21.09 штиль 0 4000 м в посл. час гроза {ливн. осадки} 4/0
[Ac trans]
+15.0 +13.9 93 +15 +15 тепло 1009.0 983.3
00 22.09 штиль 0 4000 м дымка {гроза, ливн. осадки} ясно +14.8 +13.9 94 +14 +14 тепло 1010.0 984.3
03 22.09 СЗ 1 500 м туман ?/? +13.8 +13.8 100 +14 +14 тепло 1011.4 985.6
06 22.09 С 1 1000 м в посл. час туман {ливн. осадки} 10/10 150 м
[St]
+14.9 +14.6 98 +15 +15 тепло 1012.3 986.5 +13.1 5
09 22.09 С 1 10 км 9/0
[Ci]
+18.4 +16.4 88 +20 +28 тепло 1011.1 985.7
12 22.09 СВ 3 10 км 8/0
[Ac trans Ci fib]
+23.6 +15.7 61 +27 +31 жарко 1008.9 984.0
15 22.09 СВ 4 10 км 8/0
[Ac trans Cc]
+23.4 +12.7 51 +26 +27 жарко 1007.9 983.0
18 22.09 В 3 10 км 4/0
[Ci fib]
+20.5 +11.4 56 +23 +23 комфорт 1009.1 983.9 +24.0
21 22.09 штиль 0 10 км 9/4 600 м
[Cb calv Ac trans]
+16.2 +12.6 79 +16 +16 тепло 1011.2 985.6
00 23.09 Ю 2 10 км 10/3 600 м
[Cb cap Ac und]
+15.5 +13.4 87 +15 +15 тепло 1012.9 987.2
03 23.09 ЮВ 1 4000 м дымка {ливн. осадки} 3/0
[Ac trans]
+13.2 +12.1 93 +13 +13 тепло 1016.1 990.1
06 23.09 ЮВ 3 10 км {ливн. осадки} ясно +15.0 +12.1 83 +14 +16 тепло 1017.3 991.4 +12.8 0.0
09 23.09 ЮВ 4 10 км 8/4 600 м
[Cu hum Ci fib]
+17.0 +11.9 72 +17 +19 тепло 1019.0 993.2
12 23.09 ЮВ 4 10 км 9/0
[Ac trans Ci]
+20.4 +9.1 48 +22 +25 комфорт 1019.0 993.5
15 23.09 В 3 10 км в посл. час ливневой дождь 10/6 630 м
[Cb cap Ac und]
+16.5 +13.3 81 +16 +16 тепло 1020.6 994.8
18 23.09 В 1 4000 м слабый ливневой дождь 10/8 630 м
[Cb cap Ac und]
+13.3 +11.8 91 +13 +13 по сезону 1022.0 995.8 +21.0 1
21 23.09 штиль 0 4000 м дымка {ливн. осадки} 10/0
[Ac trans Ci]
+12.5 +11.0 91 +12 +12 по сезону 1021.5 995.3
00 24.09 штиль 0 4000 м в посл. час ливневой дождь 10/5 600 м
[Cb cap Ac und]
+12.0 +11.0 94 +11 +11 по сезону 1021.4 995.1
03 24.09 В 1 4000 м в посл. час ливневой дождь 10/6 840 м
[Cb cap Ac und]
+12.2 +10.9 92 +12 +12 по сезону 1020.9 994.6
06 24.09 В 1 10 км слабый ливневой дождь 10/8 800 м
[Cb cap Ac und]
+12.6 +10.3 86 +13 +13 тепло 1021.4 995.2 +11.3 0.8
09 24.09 В 3 4000 м слабый ливневой дождь 10/10 300 м
[Cb cap]
+12.0 +10.9 93 +10 +10 прохладно 1021.8 995.5
12 24.09 В 4 4000 м слабая морось {ливн. осадки, дождь} 10/10 180 м
[St]
+11.6 +10.8 95 +9 +9 очень
холодно
1022.7 996.3
15 24.09 В 3 4000 м дымка {морось} 10/10 240 м
[St]
+12.0 +10.5 91 +10 +10 прохладно 1024.1 997.7
18 24.09 В 2 4000 м дымка {морось} 10/10 300 м
[St]
+12.0 +10.5 91 +11 +11 по сезону 1025.1 998.7 +12.7 2
21 24.09 СВ 1 4000 м дымка 8/4 600 м
[Sc Ac trans]
+11.7 +10.3 91 +11 +11 по сезону 1025.4 999.0
00 25.09 В 2 4000 м дымка 9/0
[Ac trans]
+11.5 +9.9 90 +10 +10 по сезону 1025.5 999.1
03 25.09 штиль 0 4000 м дымка 3/0
[Ac trans]
+10.4 +9.6 95 +10 +10 по сезону 1026.5 999.9
06 25.09 В 2 10 км 9/3 600 м
[Sc Ac trans Cc]
+12.0 +9.2 83 +11 +12 по сезону 1027.6 1001.1 +9.7
09 25.09 ЮВ 2 10 км 10/3 600 м
[Cb cap Ac und]
+13.3 +10.6 84 +13 +14 по сезону 1028.5 1002.1
12 25.09 В 2 10 км 8/3 600 м
[Cu med, cong Ci fib]
+19.4 +12.2 63 +21 +25 комфорт 1027.8 1002.0
15 25.09 В 1 10 км 9/0
[Ac trans Ci fib]
+19.1 +9.9 55 +21 +21 комфорт 1028.1 1002.3
18 25.09 штиль 0 10 км ясно +12.7 +10.2 85 +12 +12 по сезону 1029.6 1003.2 +20.2
21 25.09 В 1 10 км ясно +10.3 +8.5 89 +10 +10 по сезону 1030.5 1003.8
00 26.09 штиль 0 10 км 4/0
[Ac trans]
+9.2 +7.1 87 +8 +8 по сезону 1030.9 1004.1
03 26.09 СВ 1 10 км 8/0
[Ac trans]
+10.0 +6.1 77 +10 +10 по сезону 1031.4 1004.6
06 26.09 В 1 10 км 4/0
[Ac trans Ci fib]
+11.7 +5.9 68 +12 +13 тепло 1032.1 1005.5 +8.4
09 26.09 В 3 10 км 3/0
[Ci fib]
+16.7 +6.0 49 +17 +22 тепло 1032.1 1005.9
12 26.09 В 3 10 км 3/0
[Ci fib]
+17.8 +3.4 38 +18 +23 тепло 1031.5 1005.4
15 26.09 В 1 10 км 1/0
[Ci fib]
+16.8 +4.5 44 +18 +18 тепло 1031.5 1005.3
18 26.09 СВ 2 10 км ясно +12.2 +4.8 61 +11 +11 по сезону 1032.8 1006.2 +18.3

 

Местоположение метеостанции Житомир (Житомирская область, Украина): широта 50.23 долгота 28.73 высота над уровнем моря 224 м.

В архиве по умолчанию представлена погода в Житомире за последнюю неделю. Архивные данные за месяц целиком и за предыдущие месяцы, начиная с января 2011 года, Вы можете получить, выбрав интересующий диапазон дат из раскрывающегося списка и нажав кнопку "Ввод!".

Внимание! Время в таблицах - всемирное. Для получения местного времени необходимо прибавить поправку, которая в Житомире равна 2 ч.

Смотрите также архив погоды в соседних городах и на ближайших метеорологических станциях:

Погода в Белополе (Винницкая область, Украина) (46 км)
Погода в Тетереве (Киевская область, Украина) (80 км)
Погода в Коростени (Житомирская область, Украина) (80 км)
Погода в Фастове (Киевская область, Украина) (86 км)
Погода в Новограде-Волынском (Житомирская область, Украина) (88 км)
Погода в Виннице (Винницкая область, Украина) (112 км)
Погода в Белой Церкви (Киевская область, Украина) (113 км)
Погода в Шепетовке (Хмельницкая область, Украина) (121 км)
Погода в Овруче (Житомирская область, Украина) (121 км)
Погода в Хмельнике (Винницкая область, Украина) (130 км)

Пояснения к столбцам:

Ветер - указаны скорость ветра в м/с - средняя за 10 мин, порывы в срок и между сроками (в фигурных скобках) и направление, откуда дует ветер: С - северный, СВ - северо-восточный, В - восточный, ЮВ - юго-восточный, Ю - южный, ЮЗ - юго-западный, З - западный, СЗ - северо-западный.
Видимость - горизонтальная дальность видимости в метрах или километрах. При видимости от 1 до 10 км при отсутствии осадков обычно наблюдается дымка, при ухудшении видимости до 1 км и менее - туман. В сухую погоду видимость может ухудшаться дымом, пылью или мглою.
Явления - указаны атмосферные явления, наблюдавшиеся в срок или в последний час перед сроком; фигурными скобками обозначены явления, наблюдавшиеся между сроками (за 1-3 часа до срока); квадратными скобками обозначены град или гололедные отложения с указанием их диаметра в мм.
Облачность - указаны через наклонную черту общая и нижняя облачность в баллах и высота нижней границы облаков в метрах; квадратными скобками обозначены формы облаков: Ci - перистые, Cs - перисто-слоистые, Cc - перисто-кучевые, Ac - высококучевые, As - высокослоистые, Sc - слоисто-кучевые, Ns - слоисто-дождевые, Cu - кучевые, Cb - кучево-дождевые. Подробнее классификацию облаков см. в Атласе облаков (PDF).
T - Температура воздуха - температура, измеренная на высоте 2 м над землей.
Td - Температура точки росы - температура, при понижении до которой содержащийся в воздухе водяной пар достигнет насыщения.
f - Относительная влажность воздуха - влажноcть воздуха, измеренная на высоте 2 м над землей.
Te - Эффективная температура - температура, которую ощущает одетый по сезону человек в тени. Характеристика душности погоды. При расчете учитывается влияние влажности воздуха и скорости ветра на теплоощущения человека.
Tes - Эффективная температура на солнце - температура, которую ощущает человек, с поправкой на солнечный нагрев. Характеристика знойности погоды. Зависит от высоты солнца над горизонтом, облачности и скорости ветра. Ночью, в пасмурную погоду, а также при ветре 12 м/с и более поправка равна нулю.
P - Атмосферное давление - приведенное к уровню моря атмосферное давление.
Po - Атмосферное давление - измеренное на уровне метеостанции атмосферное давление.
Tmin - Минимальная температура - минимум температуры воздуха на высоте 2 м над землей.
Tmax - Максимальная температура - максимум температуры воздуха на высоте 2 м над землей.
R - Количество осадков - Количество выпавших осадков за период времени, мм. При наведении курсора мыши на число - период времени, за который выпало указанное количество осадков.
R24 - Количество осадков - Количество выпавших осадков за 24 часа, мм.
S - Снежный покров - Высота снежного покрова, см. При наведении курсора мыши на число - состояние снежного покрова и степень покрытия местности в баллах.